SMOS

Last updated on Thu Mar 05 2026 00:02:38 GMT+0000 (Coordinated Universal Time)

1 36036U 09059A 26063.52839370 .00000449 00000+0 15704-3 0 9991 2 36036 98.4425 252.3805 0001031 80.1660 279.9644 14.39755957858392
UTC large
Height (km)
Speed (km/s)
/
Latitude / Longitude
Inclination (degrees)
Orbital Period (minutes)
Azimuth
Elevation
Range (km)
Doppler Factor

Next 0 passes for location: London (51.5072 / 0.1276)

Sorry there are no passes over London.